Simultaneous Nadir Overpasses (SNOs) Predictions

Prediction of SNOs between LANDSAT-8 and METOP-B Satellite Orbit:

Table of predicted SNOs for the next 14.0 days since TLE Epoch: 7/16/2016
Index Date (LANDSAT-8) Time (LANDSAT-8) Lat,Lon (LANDSAT-8) SZA (LANDSAT-8 ) Date (METOP-B) Time (METOP-B) Lat,Lon (METOP-B) SZA (METOP-B ) Distance(km) Time Diff (sec)
1 07/16/2016 17:24:42 81.08, -41.80 61.84 07/16/2016 17:24:07 81.08, -41.76 61.83 0.57 35
2 07/16/2016 18:14:08 -81.10, 126.12 118.12 07/16/2016 18:14:46 -81.10, 126.21 118.09 1.62 38
3 07/19/2016 12:58:58 81.08, 24.68 62.34 07/19/2016 12:58:32 81.08, 24.67 62.32 0.39 26
4 07/19/2016 13:48:24 -81.10,-167.37 117.62 07/19/2016 13:49:11 -81.10,-167.31 117.59 0.96 47
5 07/22/2016 08:33:14 81.08, 91.13 62.88 07/22/2016 08:32:57 81.08, 91.08 62.86 0.99 17
6 07/22/2016 09:22:39 -81.11,-100.89 117.07 07/22/2016 09:23:35 -81.11,-100.86 117.04 0.64 56
7 07/25/2016 04:07:29 81.08, 157.54 63.46 07/25/2016 04:07:21 81.08, 157.47 63.45 1.31 8
8 07/25/2016 04:56:55 -81.11, -34.46 116.48 07/25/2016 04:58:00 -81.11, -34.42 116.45 0.66 65
9 07/27/2016 22:52:20 -81.05, 55.91 115.99 07/27/2016 22:51:07 -81.06, 55.97 116.00 1.32 73
10 07/27/2016 23:41:45 81.08,-136.08 64.08 07/27/2016 23:41:46 81.08,-136.16 64.08 1.39 1




NCC Satellite Simultaneous Nadir Overpasses (SNOs) Prediction Service
